Location: Unspecified
(0.0000°N, 0.0000°E)
Time: 11:36:12
(UTC+02:00)

Iridium 76 - Visible Passes

Search period start: 22 October 2014 00:00
Search period end: 31 October 2014 23:00
Orbit: 776 x 779 km, 86.4° (Epoch: 21 October)

Date Brightness Start Highest point End Pass type
(mag) Time Alt. Az. Time Alt. Az. Time Alt. Az.
22 Oct 7.8 07:18:30 10° NNE 07:23:03 31° E 07:27:36 10° SSE visible
23 Oct 8.7 06:46:58 10° ENE 06:49:36 14° E 06:52:13 10° ESE visible
23 Oct 9.0 21:02:24 10° WSW 21:03:33 11° W 21:04:42 10° WNW visible
24 Oct 8.1 20:25:55 10° SW 20:30:06 25° W 20:34:18 10° NW visible
26 Oct 8.2 05:45:37 10° NE 05:49:39 23° E 05:53:41 10° SE visible
27 Oct 8.6 19:27:11 10° SW 19:30:09 15° W 19:33:06 10° NW visible
29 Oct 7.2 05:44:56 10° NNE 05:49:41 37° E 05:54:27 10° SSE visible
30 Oct 8.4 05:13:00 10° NE 05:16:14 17° E 05:19:29 10° SE visible
